Location: City of Moscow
(46.7306°N, 116.9989°W)
Time: 05:28:46
(UTC+00:00)

Orbus 7S? - Pass Details

Date: 18 March 2026
Orbit: 354 x 6170 km, 56.9° (Epoch: 30 September)

Event Time Altitude Azimuth Distance (km) Brightness Sun altitude
Rises 11:18:48 0° 168° (SSE) 10,472 9.6 -26.4°
Reaches altitude 10° 11:27:48 10° 160° (SSE) 9,652 9.5 -25.1°
Maximum altitude 11:57:27 34° 110° (ESE) 6,696 9.1 -20.5°
Drops below altitude 10° 12:16:21 10° 57° (ENE) 6,395 9.9 -17.4°
Sets 12:20:31 0° 48° (NE) 6,775 10.1 -16.7°
